Location: Kunchanapalle
(16.4623°N, 80.6176°E)
Time: 18:31:46
(UTC+00:00)

Meteor 1-31 Rocket - Pass Details

Date: 13 August 2020
Orbit: 520 x 548 km, 97.6° (Epoch: 20 September)

Event Time Altitude Azimuth Distance (km) Brightness Sun altitude
Rises 22:39:40 0° 25° (NNE) 2,653 7.0 -23.8°
Reaches altitude 10° 22:41:56 10° 36° (NE) 1,759 6.2 -23.3°
Maximum altitude 22:45:20 31° 99° (E) 922 4.4 -22.6°
Enters shadow 22:48:31 11° 162° (SSE) 1,672 5.2 -21.9°
